カタログに戻る

DELTA 1 DEB

運用中SSO
NORAD 10830·DEBRIS·🇺🇸 United States

打ち上げ Jul 29, 1976 から Vandenberg Space Force Base

Loading…

次のパス (今後24時間)

TLE

最新Source: Space-Track

元期: Sep 14, 2026, 11:56 UTC

1 10830U 76077CA  26257.49761968 -.00000021  00000-0  18028-3 0  9997
2 10830 101.9254 357.2023 0088557  38.6806  22.5368 12.28447572247586

AllMySatでDELTA 1 DEBをリアルタイム追跡

Download on the App Store